User: anonymous   Login
Location: Unspecified
(0.0000°N, 0.0000°E)
Time: 01:32:46
(UTC+02:00)
Language:

Ariane H10 - Orbit

View from above orbital plane
View from above orbital plane
View from above satellite
View from above satellite

Ground track
Ground track

The orbit data is extracted from the following two-line orbital elements,

1 21727U 91067B   15241.20869505  .00000045  00000-0  50868-3 0  9999
2 21727 004.2180 247.0100 7180037 330.0658 015.7201 02.31608890162687
Epoch (UTC): 29 August 2015 05:00:31
Eccentricity: 0.7180037
inclination: 4.2180°
perigee height: 426 km
apogee height: 35077 km
right ascension of ascending node: 247.0100°
argument of perigee: 330.0658°
revolutions per day: 2.31608890
mean anomaly at epoch: 15.7201°
orbit number at epoch: 16268

The dashed part of the orbit path shows where the satellite is in the earth's shadow,  

DLR